{"data":{"norad_id":57378,"epoch":"2026-09-20T12:27:47.470752Z","epoch_age_seconds":122625,"freshness":"FRESH","line1":"1 57378U 23099BC  26263.51929943  .00000240  00000+0  18249-4 0  9997","line2":"2 57378  43.0017 192.1625 0001178 273.6993  86.3724 15.27576081177073","mean_motion":15.27576081,"eccentricity":0.0001178,"inclination_deg":43.0017,"raan_deg":192.1625,"arg_perigee_deg":273.6993,"mean_anomaly_deg":86.3724,"bstar":1.8249e-5,"rev_number":17707,"period_min":94.266990555215,"perigee_km":482.25258185611,"apogee_km":483.86908006508,"semimajor_km":6861.1978309606,"source":"CELESTRAK","updated_at":"2026-09-21T09:00:33.622006Z"}}